Change the Weather History Date:

Friday, March 28, 2014

  Actual Average (KRPD) Record (KRPD)
Temperature  
Mean Temperature 27 °F -  
Max Temperature 33 °F 42 °F 60 °F (1998)
Min Temperature 21 °F 26 °F 3 °F (2011)
Degree Days  
Heating Degree Days 38    
Moisture  
Dew Point 19 °F    
Average Humidity 69    
Maximum Humidity 93    
Minimum Humidity 44    
Precipitation  
Precipitation 0.00 in - - ()
Sea Level Pressure  
Sea Level Pressure 30.01 in    
Wind  
Wind Speed 10 mph (NNW)    
Max Wind Speed 16 mph    
Max Gust Speed 25 mph    
Visibility 10 miles    
Events      
Averages and records for this station are not official NWS values.
T = Trace of Precipitation, MM = Missing Value Source: NWS Daily Summary

Daily Weather History Graph

Daily Weather History Graph

Search for Another Location

Airport or City:

Trip Planner

Search our weather history database for the weather conditions in past years. The results will help you decide how hot, cold, wet, or windy it might be!

Date:

Astronomy

Mar. 28, 2014 Rise Set
Actual Time 6:55 AM CDT 7:30 PM CDT
Civil Twilight 6:25 AM CDT 8:00 PM CDT
Nautical Twilight 5:50 AM CDT 8:36 PM CDT
Astronomical Twilight 5:14 AM CDT 9:12 PM CDT
Moon 5:33 AM CDT (3/28) 5:22 PM CDT (3/28)
Length of Visible Light 13h 34m
Length of Day
12h 35m
Waning Crescent, 6% of the Moon is Illuminated
Mar 28
Waning Crescent
Mar 30
New
Apr 7
First Quarter
Apr 15
Full
Apr 22
Last Quarter

Hourly Weather History & Observations

Time (CDT) Temp. Windchill Dew Point Humidity Pressure Visibility Wind Dir Wind Speed Gust Speed Precip Events Conditions
12:15 AM 28.4 °F 17.5 °F 24.8 °F 86% 29.68 in 10.0 mi North 13.8 mph 24.2 mph N/A   Overcast
12:35 AM 28.4 °F 16.6 °F 24.8 °F 86% 29.69 in 10.0 mi North 16.1 mph 25.3 mph N/A   Overcast
12:55 AM 28.4 °F 18.0 °F 24.8 °F 86% 29.70 in 10.0 mi North 12.7 mph 19.6 mph N/A   Overcast
1:15 AM 28.4 °F 18.0 °F 24.8 °F 86% 29.71 in 10.0 mi North 12.7 mph - N/A   Overcast
1:35 AM 28.4 °F 17.5 °F 24.8 °F 86% 29.72 in 10.0 mi North 13.8 mph 18.4 mph N/A   Overcast
1:55 AM 28.4 °F 17.5 °F 26.6 °F 93% 29.73 in 10.0 mi North 13.8 mph 17.3 mph N/A   Overcast
2:15 AM 28.4 °F 17.0 °F 24.8 °F 86% 29.74 in 10.0 mi North 15.0 mph - N/A   Overcast
2:35 AM 28.4 °F 19.1 °F 24.8 °F 86% 29.75 in 10.0 mi North 10.4 mph - N/A   Overcast
2:55 AM 28.4 °F 17.0 °F 24.8 °F 86% 29.76 in 10.0 mi North 15.0 mph - N/A   Overcast
3:15 AM 28.4 °F 17.5 °F 24.8 °F 86% 29.77 in 10.0 mi North 13.8 mph - N/A   Overcast
3:35 AM 28.4 °F 18.5 °F 24.8 °F 86% 29.78 in 10.0 mi NNW 11.5 mph 18.4 mph N/A   Overcast
3:55 AM 28.4 °F 17.5 °F 23.0 °F 80% 29.79 in 10.0 mi NNW 13.8 mph - N/A   Overcast
4:15 AM 26.6 °F 16.2 °F 23.0 °F 86% 29.81 in 10.0 mi NNW 11.5 mph - N/A   Mostly Cloudy
4:35 AM 26.6 °F 16.8 °F 21.2 °F 80% 29.82 in 10.0 mi NNW 10.4 mph - N/A   Scattered Clouds
4:55 AM 24.8 °F 14.6 °F 21.2 °F 86% 29.83 in 10.0 mi NNW 10.4 mph - N/A   Clear
5:15 AM 24.8 °F 14.6 °F 21.2 °F 86% 29.85 in 10.0 mi NNW 10.4 mph - N/A   Clear
5:35 AM 23.0 °F 13.1 °F 21.2 °F 93% 29.86 in 10.0 mi NNW 9.2 mph - N/A   Clear
5:55 AM 23.0 °F 14.7 °F 21.2 °F 93% 29.87 in 10.0 mi NNW 6.9 mph - N/A   Clear
6:15 AM 21.2 °F 10.9 °F 19.4 °F 93% 29.89 in 10.0 mi NNW 9.2 mph - N/A   Clear
6:35 AM 21.2 °F 11.7 °F 19.4 °F 93% 29.90 in 10.0 mi NNW 8.1 mph - N/A   Clear
6:55 AM 21.2 °F 12.6 °F 19.4 °F 93% 29.92 in 7.0 mi NNW 6.9 mph - N/A   Clear
7:15 AM 21.2 °F 11.7 °F 17.6 °F 86% 29.94 in 10.0 mi NNW 8.1 mph - N/A   Clear
7:35 AM 21.2 °F 11.7 °F 19.4 °F 93% 29.95 in 10.0 mi NNW 8.1 mph - N/A   Clear
7:55 AM 23.0 °F 13.9 °F 19.4 °F 86% 29.96 in 10.0 mi North 8.1 mph - N/A   Clear
8:15 AM 23.0 °F 13.9 °F 19.4 °F 86% 29.97 in 10.0 mi North 8.1 mph - N/A   Clear
8:35 AM 24.8 °F 16.9 °F 19.4 °F 80% 29.97 in 10.0 mi NNW 6.9 mph - N/A   Clear
8:55 AM 24.8 °F 16.9 °F 19.4 °F 80% 29.98 in 10.0 mi North 6.9 mph - N/A   Clear
9:15 AM 26.6 °F 18.2 °F 19.4 °F 74% 29.98 in 10.0 mi North 8.1 mph - N/A   Clear
9:35 AM 26.6 °F 21.2 °F 19.4 °F 74% 29.99 in 10.0 mi North 4.6 mph - N/A   Clear
9:55 AM 28.4 °F 23.3 °F 19.4 °F 69% 29.99 in 10.0 mi NNE 4.6 mph - N/A   Clear
10:15 AM 28.4 °F 22.2 °F 19.4 °F 69% 30.01 in 10.0 mi North 5.8 mph - N/A   Clear
10:35 AM 30.2 °F 24.3 °F 21.2 °F 69% 30.03 in 10.0 mi NNW 5.8 mph - N/A   Clear
10:55 AM 30.2 °F 21.9 °F 21.2 °F 69% 30.03 in 10.0 mi NNW 9.2 mph - N/A   Clear
11:15 AM 30.2 °F 23.4 °F 21.2 °F 69% 30.04 in 10.0 mi NNW 6.9 mph - N/A   Clear
11:35 AM 30.2 °F 23.4 °F 21.2 °F 69% 30.05 in 10.0 mi North 6.9 mph - N/A   Clear
11:55 AM 32.0 °F 26.4 °F 21.2 °F 64% 30.05 in 10.0 mi NNW 5.8 mph - N/A   Clear
12:15 PM 32.0 °F 26.4 °F 21.2 °F 64% 30.06 in 10.0 mi NNW 5.8 mph - N/A   Clear
12:35 PM 32.0 °F 25.6 °F 19.4 °F 60% 30.05 in 10.0 mi North 6.9 mph - N/A   Clear
12:55 PM 32.0 °F 24.2 °F 19.4 °F 60% 30.07 in 10.0 mi NNW 9.2 mph - N/A   Clear
1:15 PM 32.0 °F 25.6 °F 17.6 °F 55% 30.08 in 10.0 mi North 6.9 mph - N/A   Clear
1:35 PM 32.0 °F 24.8 °F 17.6 °F 55% 30.09 in 10.0 mi North 8.1 mph - N/A   Clear
1:55 PM 33.8 °F 26.4 °F 15.8 °F 48% 30.07 in 10.0 mi NNE 9.2 mph - N/A   Clear
2:15 PM 32.0 °F 28.7 °F 15.8 °F 51% 30.09 in 10.0 mi NNW 3.5 mph - N/A   Clear
2:35 PM 32.0 °F 26.4 °F 17.6 °F 55% 30.08 in 10.0 mi North 5.8 mph - N/A   Clear
2:55 PM 32.0 °F 25.6 °F 17.6 °F 55% 30.09 in 10.0 mi North 6.9 mph - N/A   Clear
3:15 PM 33.8 °F 27.7 °F 17.6 °F 52% 30.10 in 10.0 mi North 6.9 mph - N/A   Clear
3:35 PM 33.8 °F 27.0 °F 15.8 °F 48% 30.10 in 10.0 mi North 8.1 mph - N/A   Clear
3:55 PM 32.0 °F 26.4 °F 17.6 °F 55% 30.11 in 10.0 mi North 5.8 mph - N/A   Clear
4:15 PM 32.0 °F 26.4 °F 15.8 °F 51% 30.11 in 10.0 mi NW 5.8 mph - N/A   Clear
4:35 PM 33.8 °F 28.6 °F 14.0 °F 44% 30.11 in 10.0 mi North 5.8 mph - N/A   Clear
4:55 PM 33.8 °F 26.4 °F 15.8 °F 48% 30.12 in 10.0 mi NNW 9.2 mph - N/A   Clear
5:15 PM 32.0 °F 24.2 °F 14.0 °F 48% 30.13 in 10.0 mi NW 9.2 mph - N/A   Clear
5:35 PM 32.0 °F 25.6 °F 14.0 °F 48% 30.13 in 10.0 mi NNW 6.9 mph - N/A   Clear
5:55 PM 32.0 °F 27.5 °F 14.0 °F 48% 30.14 in 10.0 mi NW 4.6 mph - N/A   Scattered Clouds
6:15 PM 32.0 °F 27.5 °F 15.8 °F 51% 30.15 in 10.0 mi NW 4.6 mph - N/A   Scattered Clouds
6:35 PM 32.0 °F 26.4 °F 14.0 °F 48% 30.15 in 10.0 mi NW 5.8 mph - N/A   Scattered Clouds
6:55 PM 32.0 °F 25.6 °F 14.0 °F 48% 30.16 in 10.0 mi NNW 6.9 mph - N/A   Scattered Clouds
7:15 PM 30.2 °F 24.3 °F 17.6 °F 60% 30.16 in 10.0 mi NNW 5.8 mph - N/A   Mostly Cloudy
7:35 PM 30.2 °F 23.4 °F 17.6 °F 60% 30.16 in 10.0 mi NNW 6.9 mph - N/A   Mostly Cloudy
7:55 PM 30.2 °F 24.3 °F 17.6 °F 60% 30.16 in 10.0 mi NNW 5.8 mph - N/A   Scattered Clouds
8:15 PM 30.2 °F 23.4 °F 17.6 °F 60% 30.16 in 10.0 mi North 6.9 mph - N/A   Mostly Cloudy
8:35 PM 30.2 °F 24.3 °F 17.6 °F 60% 30.17 in 10.0 mi NNW 5.8 mph - N/A   Mostly Cloudy
8:55 PM 30.2 °F 24.3 °F 15.8 °F 55% 30.17 in 10.0 mi North 5.8 mph - N/A   Mostly Cloudy
9:15 PM 30.2 °F 25.4 °F 15.8 °F 55% 30.19 in 10.0 mi North 4.6 mph - N/A   Overcast
9:35 PM 30.2 °F 25.4 °F 14.0 °F 51% 30.19 in 10.0 mi North 4.6 mph - N/A   Overcast
9:55 PM 28.4 °F - 14.0 °F 55% 30.20 in 10.0 mi Calm Calm - N/A   Mostly Cloudy
10:15 PM 26.6 °F - 14.0 °F 59% 30.20 in 10.0 mi Calm Calm - N/A   Scattered Clouds
10:35 PM 26.6 °F - 14.0 °F 59% 30.21 in 10.0 mi Calm Calm - N/A   Scattered Clouds
10:55 PM 26.6 °F 22.6 °F 14.0 °F 59% 30.21 in 10.0 mi NNW 3.5 mph - N/A   Scattered Clouds
11:15 PM 23.0 °F 15.8 °F 14.0 °F 68% 30.21 in 10.0 mi North 5.8 mph - N/A   Clear
11:35 PM 24.8 °F 20.5 °F 14.0 °F 64% 30.22 in 10.0 mi North 3.5 mph - N/A   Scattered Clouds
11:55 PM 23.0 °F 18.4 °F 15.8 °F 74% 30.22 in 10.0 mi NNW 3.5 mph - N/A   Scattered Clouds